Time,TemperatureF,DewpointF,PressureIn,WindDirection,WindDirectionDegrees,WindSpeedMPH,WindSpeedGustMPH,Humidity,HourlyPrecipIn,Conditions,Clouds,dailyrainin,SolarRadiationWatts/m^2,SoftwareType,DateUTC
2013-01-14 00:00:00,47.6,47.6,29.57,NNW,343,2.0,5.0,100,0.00,,,0.00,0000,Weather View 32 v70,2013-01-14 05:00:00,
2013-01-14 00:01:00,47.5,47.5,29.57,NNW,343,2.0,5.0,100,0.00,,,0.00,0000,Weather View 32 v70,2013-01-14 05:01:00,
2013-01-14 00:03:00,47.6,47.6,29.57,NNW,343,2.0,5.0,100,0.00,,,0.00,0000,Weather View 32 v70,2013-01-14 05:03:00,
2013-01-14 00:08:00,46.8,46.8,29.56,North,349,4.0,5.0,100,0.00,,,0.00,0000,Weather View 32 v70,2013-01-14 05:08:00,
2013-01-14 00:13:00,46.9,46.9,29.55,NNW,332,6.0,6.0,100,0.00,,,0.00,0000,Weather View 32 v70,2013-01-14 05:13:00,
2013-01-14 00:18:00,47.1,47.0,29.56,North,349,6.0,7.0,100,0.00,,,0.00,0000,Weather View 32 v70,2013-01-14 05:18:00,
2013-01-14 00:23:00,47.2,47.2,29.56,North,349,3.0,7.0,100,0.00,,,0.00,0000,Weather View 32 v70,2013-01-14 05:23:00,
2013-01-14 00:28:00,47.3,47.3,29.56,North,349,3.0,7.0,100,0.00,,,0.00,0000,Weather View 32 v70,2013-01-14 05:28:00,
2013-01-14 00:33:00,47.4,47.4,29.56,North,349,4.0,7.0,100,0.00,,,0.00,0000,Weather View 32 v70,2013-01-14 05:33:00,
2013-01-14 00:38:00,47.5,47.5,29.56,NNW,343,3.0,7.0,100,0.00,,,0.00,0000,Weather View 32 v70,2013-01-14 05:38:00,
2013-01-14 00:43:00,47.5,47.5,29.54,NNW,343,6.0,7.0,100,0.00,,,0.00,0000,Weather View 32 v70,2013-01-14 05:43:00,
2013-01-14 00:48:00,47.3,47.3,29.55,NNW,338,6.0,7.0,100,0.00,,,0.00,0000,Weather View 32 v70,2013-01-14 05:48:00,
2013-01-14 00:53:00,47.4,47.4,29.55,NNW,343,4.0,9.0,100,0.00,,,0.00,0000,Weather View 32 v70,2013-01-14 05:53:00,
2013-01-14 00:58:00,47.5,47.5,29.55,NNW,343,5.0,9.0,100,0.00,,,0.00,0000,Weather View 32 v70,2013-01-14 05:58:00,
2013-01-14 01:03:00,47.6,47.6,29.55,NNW,343,6.0,10.0,100,0.00,,,0.00,0000,Weather View 32 v70,2013-01-14 06:03:00,
2013-01-14 01:08:00,47.6,47.6,29.55,NNW,338,5.0,10.0,100,0.00,,,0.00,0000,Weather View 32 v70,2013-01-14 06:08:00,
2013-01-14 01:13:00,47.6,47.6,29.56,North,349,3.0,10.0,100,0.00,,,0.00,0000,Weather View 32 v70,2013-01-14 06:13:00,
2013-01-14 01:18:00,47.6,47.6,29.56,North,349,5.0,10.0,100,0.00,,,0.00,0000,Weather View 32 v70,2013-01-14 06:18:00,
2013-01-14 01:23:00,47.6,47.6,29.56,North,349,3.0,10.0,100,0.00,,,0.00,0000,Weather View 32 v70,2013-01-14 06:23:00,
2013-01-14 01:28:00,47.6,47.6,29.56,North,349,3.0,10.0,100,0.00,,,0.00,0000,Weather View 32 v70,2013-01-14 06:28:00,
2013-01-14 01:33:00,47.6,47.6,29.56,North,349,4.0,10.0,100,0.00,,,0.00,0000,Weather View 32 v70,2013-01-14 06:33:00,
2013-01-14 01:38:00,47.5,47.5,29.56,North,349,3.0,10.0,100,0.00,,,0.00,0000,Weather View 32 v70,2013-01-14 06:38:00,
2013-01-14 01:43:00,47.5,47.5,29.56,North,349,5.0,10.0,100,0.00,,,0.00,0000,Weather View 32 v70,2013-01-14 06:43:00,
2013-01-14 01:48:00,47.4,47.4,29.56,NNW,332,7.0,10.0,100,0.00,,,0.00,0000,Weather View 32 v70,2013-01-14 06:48:00,
2013-01-14 01:53:00,47.4,47.4,29.56,NNW,338,5.0,10.0,100,0.00,,,0.00,0000,Weather View 32 v70,2013-01-14 06:53:00,
2013-01-14 01:58:00,47.4,47.4,29.56,NNW,338,5.0,10.0,100,0.00,,,0.00,0000,Weather View 32 v70,2013-01-14 06:58:00,
2013-01-14 02:03:00,47.5,47.5,29.56,NNW,338,4.0,10.0,100,0.00,,,0.00,0000,Weather View 32 v70,2013-01-14 07:03:00,
2013-01-14 02:08:00,47.4,47.4,29.56,NNW,338,5.0,10.0,100,0.00,,,0.00,0000,Weather View 32 v70,2013-01-14 07:08:00,
2013-01-14 02:13:00,47.5,47.5,29.56,NNW,338,4.0,9.0,100,0.00,,,0.00,0000,Weather View 32 v70,2013-01-14 07:13:00,
2013-01-14 02:18:00,47.5,47.5,29.57,NNW,338,3.0,9.0,100,0.00,,,0.00,0000,Weather View 32 v70,2013-01-14 07:18:00,
2013-01-14 02:23:00,47.7,47.7,29.56,NNW,338,3.0,9.0,100,0.00,,,0.00,0000,Weather View 32 v70,2013-01-14 07:23:00,
2013-01-14 02:28:00,47.7,47.7,29.56,NNW,338,3.0,9.0,100,0.00,,,0.00,0000,Weather View 32 v70,2013-01-14 07:28:00,
2013-01-14 02:33:00,47.5,47.5,29.57,NNW,338,3.0,9.0,100,0.00,,,0.00,0000,Weather View 32 v70,2013-01-14 07:33:00,
2013-01-14 02:38:00,47.5,47.5,29.56,NNW,338,5.0,9.0,100,0.00,,,0.00,0000,Weather View 32 v70,2013-01-14 07:38:00,
2013-01-14 02:43:00,47.5,47.5,29.56,NNW,338,5.0,9.0,100,0.00,,,0.00,0000,Weather View 32 v70,2013-01-14 07:43:00,
2013-01-14 02:48:00,47.5,47.5,29.56,NNW,338,4.0,9.0,100,0.00,,,0.00,0000,Weather View 32 v70,2013-01-14 07:48:00,
2013-01-14 02:53:00,47.6,47.6,29.56,NNW,338,4.0,8.0,100,0.00,,,0.00,0000,Weather View 32 v70,2013-01-14 07:53:00,
2013-01-14 02:58:00,47.6,47.6,29.56,NNW,338,3.0,8.0,100,0.00,,,0.00,0000,Weather View 32 v70,2013-01-14 07:58:00,
2013-01-14 03:03:00,47.8,47.8,29.55,NNW,343,5.0,8.0,100,0.00,,,0.00,0000,Weather View 32 v70,2013-01-14 08:03:00,
2013-01-14 03:08:00,47.6,47.6,29.55,NNW,343,5.0,8.0,100,0.00,,,0.00,0000,Weather View 32 v70,2013-01-14 08:08:00,
2013-01-14 03:13:00,47.8,47.8,29.56,NNW,343,4.0,8.0,100,0.00,,,0.00,0000,Weather View 32 v70,2013-01-14 08:13:00,
2013-01-14 03:18:00,47.8,47.8,29.55,North,349,4.0,8.0,100,0.00,,,0.00,0000,Weather View 32 v70,2013-01-14 08:18:00,
2013-01-14 03:23:00,48.0,48.0,29.56,NNW,343,6.0,8.0,100,0.00,,,0.00,0000,Weather View 32 v70,2013-01-14 08:23:00,
2013-01-14 03:28:00,48.1,48.0,29.55,North,349,3.0,8.0,100,0.00,,,0.00,0000,Weather View 32 v70,2013-01-14 08:28:00,
2013-01-14 03:33:00,48.1,48.0,29.54,North,349,3.0,8.0,100,0.00,,,0.00,0000,Weather View 32 v70,2013-01-14 08:33:00,
2013-01-14 03:38:00,48.2,48.2,29.55,North,349,2.0,8.0,100,0.00,,,0.00,0000,Weather View 32 v70,2013-01-14 08:38:00,
2013-01-14 03:43:00,48.3,48.3,29.56,North,349,1.0,8.0,100,0.00,,,0.00,0000,Weather View 32 v70,2013-01-14 08:43:00,
2013-01-14 03:48:00,48.4,48.4,29.55,North,349,1.0,8.0,100,0.00,,,0.00,0000,Weather View 32 v70,2013-01-14 08:48:00,
2013-01-14 03:53:00,48.3,48.3,29.55,North,349,2.0,8.0,100,0.00,,,0.00,0000,Weather View 32 v70,2013-01-14 08:53:00,
2013-01-14 03:58:00,48.1,48.0,29.56,North,349,3.0,8.0,100,0.00,,,0.00,0000,Weather View 32 v70,2013-01-14 08:58:00,
2013-01-14 04:03:00,48.1,48.0,29.55,North,349,3.0,7.0,100,0.00,,,0.00,0000,Weather View 32 v70,2013-01-14 09:03:00,
2013-01-14 04:08:00,48.1,48.0,29.55,North,349,4.0,7.0,100,0.00,,,0.00,0000,Weather View 32 v70,2013-01-14 09:08:00,
2013-01-14 04:13:00,47.8,47.8,29.55,North,349,2.0,7.0,100,0.00,,,0.00,0000,Weather View 32 v70,2013-01-14 09:13:00,
2013-01-14 04:18:00,48.2,48.2,29.56,North,0,4.0,7.0,100,0.00,,,0.00,0000,Weather View 32 v70,2013-01-14 09:18:00,
2013-01-14 04:23:00,47.6,47.6,29.56,North,6,3.0,7.0,100,0.00,,,0.00,0000,Weather View 32 v70,2013-01-14 09:23:00,
2013-01-14 04:28:00,47.5,47.5,29.55,North,0,2.0,5.0,100,0.00,,,0.00,0000,Weather View 32 v70,2013-01-14 09:28:00,
2013-01-14 04:33:00,47.4,47.4,29.55,North,0,4.0,5.0,100,0.00,,,0.00,0000,Weather View 32 v70,2013-01-14 09:33:00,
2013-01-14 04:38:00,47.4,47.4,29.55,North,0,2.0,5.0,100,0.00,,,0.00,0000,Weather View 32 v70,2013-01-14 09:38:00,
2013-01-14 04:43:00,47.4,47.4,29.54,North,0,0.0,5.0,100,0.00,,,0.00,0000,Weather View 32 v70,2013-01-14 09:43:00,
2013-01-14 04:48:00,46.7,46.7,29.54,North,0,2.0,5.0,100,0.00,,,0.00,0000,Weather View 32 v70,2013-01-14 09:48:00,
2013-01-14 04:53:00,45.6,45.6,29.53,North,0,3.0,5.0,100,0.00,,,0.00,0000,Weather View 32 v70,2013-01-14 09:53:00,
2013-01-14 04:58:00,45.1,45.1,29.53,North,0,3.0,5.0,100,0.00,,,0.00,0000,Weather View 32 v70,2013-01-14 09:58:00,
2013-01-14 05:03:00,45.1,45.1,29.53,North,0,2.0,5.0,100,0.00,,,0.00,0000,Weather View 32 v70,2013-01-14 10:03:00,
2013-01-14 05:08:00,45.9,45.9,29.53,North,0,0.0,5.0,100,0.00,,,0.00,0000,Weather View 32 v70,2013-01-14 10:08:00,
2013-01-14 05:13:00,45.5,45.5,29.53,NNE,17,1.0,5.0,100,0.00,,,0.00,0000,Weather View 32 v70,2013-01-14 10:13:00,
2013-01-14 05:18:00,45.6,45.6,29.53,North,6,2.0,5.0,100,0.00,,,0.00,0000,Weather View 32 v70,2013-01-14 10:18:00,
2013-01-14 05:23:00,45.7,45.7,29.52,North,0,3.0,5.0,100,0.00,,,0.00,0000,Weather View 32 v70,2013-01-14 10:23:00,
2013-01-14 05:28:00,46.2,46.2,29.52,NNE,28,3.0,5.0,100,0.00,,,0.00,0000,Weather View 32 v70,2013-01-14 10:28:00,
2013-01-14 05:33:00,47.1,47.0,29.52,North,354,5.0,5.0,100,0.00,,,0.00,0000,Weather View 32 v70,2013-01-14 10:33:00,
2013-01-14 05:38:00,46.7,46.7,29.51,NNW,338,7.0,7.0,100,0.00,,,0.00,0000,Weather View 32 v70,2013-01-14 10:38:00,
2013-01-14 05:43:00,46.6,46.6,29.49,NW,326,7.0,9.0,100,0.00,,,0.00,0000,Weather View 32 v70,2013-01-14 10:43:00,
2013-01-14 05:48:00,45.5,45.5,29.45,NW,321,15.0,18.0,100,0.00,,,0.00,0000,Weather View 32 v70,2013-01-14 10:48:00,
2013-01-14 05:53:00,46.8,46.8,29.47,NW,326,14.0,18.0,100,0.00,,,0.00,0000,Weather View 32 v70,2013-01-14 10:53:00,
2013-01-14 05:58:00,47.5,47.5,29.46,NNW,338,12.0,18.0,100,0.00,,,0.00,0000,Weather View 32 v70,2013-01-14 10:58:00,
2013-01-14 06:03:00,47.6,47.6,29.46,NNW,343,7.0,18.0,100,0.00,,,0.00,0000,Weather View 32 v70,2013-01-14 11:03:00,
2013-01-14 06:08:00,48.0,48.0,29.46,NNW,332,16.0,21.0,100,0.00,,,0.00,0000,Weather View 32 v70,2013-01-14 11:08:00,
2013-01-14 06:13:00,48.1,48.0,29.48,North,349,8.0,21.0,100,0.00,,,0.00,0000,Weather View 32 v70,2013-01-14 11:13:00,
2013-01-14 06:18:00,48.0,48.0,29.48,NNW,332,5.0,21.0,100,0.00,,,0.00,0000,Weather View 32 v70,2013-01-14 11:18:00,
2013-01-14 06:23:00,48.4,48.4,29.51,NNE,23,2.0,21.0,100,0.00,,,0.00,0000,Weather View 32 v70,2013-01-14 11:23:00,
2013-01-14 06:28:00,49.3,49.3,29.54,NE,56,9.0,21.0,100,0.00,,,0.00,0000,Weather View 32 v70,2013-01-14 11:28:00,
2013-01-14 06:33:00,48.0,48.0,29.53,NE,51,10.0,21.0,100,0.00,,,0.00,0000,Weather View 32 v70,2013-01-14 11:33:00,
2013-01-14 06:38:00,47.6,47.6,29.53,ENE,73,9.0,21.0,100,0.00,,,0.00,0000,Weather View 32 v70,2013-01-14 11:38:00,
2013-01-14 06:43:00,47.6,47.6,29.54,NE,34,6.0,21.0,100,0.00,,,0.00,0000,Weather View 32 v70,2013-01-14 11:43:00,
2013-01-14 06:48:00,47.6,47.6,29.54,NNE,28,5.0,21.0,100,0.00,,,0.00,0000,Weather View 32 v70,2013-01-14 11:48:00,
2013-01-14 06:53:00,47.6,47.6,29.54,North,0,1.0,21.0,100,0.00,,,0.00,0000,Weather View 32 v70,2013-01-14 11:53:00,
2013-01-14 06:58:00,47.6,47.6,29.54,North,6,4.0,21.0,100,0.00,,,0.00,0000,Weather View 32 v70,2013-01-14 11:58:00,
2013-01-14 07:03:00,47.7,47.7,29.56,NE,39,7.0,21.0,100,0.00,,,0.00,0000,Weather View 32 v70,2013-01-14 12:03:00,
2013-01-14 07:08:00,47.7,47.7,29.58,NNE,28,6.0,19.0,100,0.00,,,0.00,0000,Weather View 32 v70,2013-01-14 12:08:00,
2013-01-14 07:13:00,47.7,47.7,29.57,North,6,2.0,16.0,100,0.00,,,0.00,0000,Weather View 32 v70,2013-01-14 12:13:00,
2013-01-14 07:18:00,47.7,47.7,29.57,North,6,6.0,16.0,100,0.00,,,0.00,0000,Weather View 32 v70,2013-01-14 12:18:00,
2013-01-14 07:23:00,47.8,47.8,29.57,North,0,4.0,16.0,100,0.00,,,0.00,0000,Weather View 32 v70,2013-01-14 12:23:00,
2013-01-14 07:28:00,48.1,48.0,29.57,North,6,5.0,14.0,100,0.00,,,0.00,0000,Weather View 32 v70,2013-01-14 12:28:00,
2013-01-14 07:33:00,48.1,48.0,29.58,North,6,5.0,14.0,100,0.00,,,0.00,0000,Weather View 32 v70,2013-01-14 12:33:00,
2013-01-14 07:38:00,48.3,48.3,29.57,North,0,4.0,14.0,100,0.00,,,0.00,0000,Weather View 32 v70,2013-01-14 12:38:00,
2013-01-14 07:43:00,48.4,48.4,29.57,North,0,4.0,11.0,100,0.00,,,0.00,0000,Weather View 32 v70,2013-01-14 12:43:00,
2013-01-14 07:48:00,48.4,48.4,29.57,North,0,2.0,11.0,100,0.00,,,0.00,0000,Weather View 32 v70,2013-01-14 12:48:00,
2013-01-14 07:53:00,48.9,48.8,29.57,North,0,5.0,11.0,100,0.00,,,0.00,0000,Weather View 32 v70,2013-01-14 12:53:00,
2013-01-14 07:58:00,49.0,49.0,29.57,North,0,3.0,11.0,100,0.00,,,0.00,0000,Weather View 32 v70,2013-01-14 12:58:00,
2013-01-14 08:03:00,49.1,49.1,29.58,North,0,3.0,11.0,100,0.00,,,0.00,0008,Weather View 32 v70,2013-01-14 13:03:00,
2013-01-14 08:08:00,49.5,49.5,29.58,North,0,5.0,11.0,100,0.00,,,0.00,0008,Weather View 32 v70,2013-01-14 13:08:00,
2013-01-14 08:13:00,49.8,49.8,29.58,North,6,6.0,10.0,100,0.00,,,0.00,0008,Weather View 32 v70,2013-01-14 13:13:00,
2013-01-14 08:18:00,49.8,49.8,29.58,NNE,23,4.0,10.0,100,0.00,,,0.00,0016,Weather View 32 v70,2013-01-14 13:18:00,
2013-01-14 08:23:00,49.5,49.5,29.57,North,0,5.0,10.0,100,0.00,,,0.00,0016,Weather View 32 v70,2013-01-14 13:23:00,
2013-01-14 08:28:00,49.5,49.5,29.58,North,6,8.0,10.0,100,0.00,,,0.00,0016,Weather View 32 v70,2013-01-14 13:28:00,
2013-01-14 08:33:00,49.6,49.6,29.58,North,11,6.0,11.0,100,0.00,,,0.00,0024,Weather View 32 v70,2013-01-14 13:33:00,
2013-01-14 08:38:00,49.5,49.5,29.58,North,6,6.0,11.0,100,0.00,,,0.00,0032,Weather View 32 v70,2013-01-14 13:38:00,
2013-01-14 08:43:00,49.5,49.5,29.59,North,11,6.0,11.0,100,0.00,,,0.00,0048,Weather View 32 v70,2013-01-14 13:43:00,
2013-01-14 08:48:00,49.5,49.5,29.59,North,11,4.0,11.0,100,0.00,,,0.00,0040,Weather View 32 v70,2013-01-14 13:48:00,
2013-01-14 08:53:00,49.5,49.5,29.58,NNE,28,8.0,12.0,100,0.00,,,0.00,0040,Weather View 32 v70,2013-01-14 13:53:00,
2013-01-14 08:58:00,49.3,49.3,29.59,NE,34,10.0,12.0,100,0.00,,,0.00,0048,Weather View 32 v70,2013-01-14 13:58:00,
2013-01-14 09:03:00,49.3,49.3,29.59,NNE,28,8.0,15.0,100,0.00,,,0.00,0048,Weather View 32 v70,2013-01-14 14:03:00,
2013-01-14 09:08:00,49.3,49.3,29.59,NE,34,12.0,15.0,100,0.00,,,0.00,0056,Weather View 32 v70,2013-01-14 14:08:00,
2013-01-14 09:13:00,49.2,49.2,29.60,NE,34,10.0,15.0,100,0.00,,,0.00,0048,Weather View 32 v70,2013-01-14 14:13:00,
2013-01-14 09:18:00,49.2,49.2,29.60,NNE,28,7.0,16.0,100,0.00,,,0.00,0064,Weather View 32 v70,2013-01-14 14:18:00,
2013-01-14 09:23:00,49.2,49.2,29.60,North,11,6.0,16.0,100,0.00,,,0.00,0088,Weather View 32 v70,2013-01-14 14:23:00,
2013-01-14 09:29:00,49.3,49.3,29.61,NNE,23,4.0,16.0,100,0.00,,,0.00,0088,Weather View 32 v70,2013-01-14 14:29:00,
2013-01-14 09:34:00,49.3,49.3,29.61,NE,39,8.0,16.0,100,0.00,,,0.00,0064,Weather View 32 v70,2013-01-14 14:34:00,
2013-01-14 09:39:00,49.3,49.3,29.62,NNE,28,8.0,16.0,100,0.00,,,0.00,0112,Weather View 32 v70,2013-01-14 14:39:00,
2013-01-14 09:44:00,49.3,49.3,29.62,NNE,23,5.0,16.0,100,0.00,,,0.00,0144,Weather View 32 v70,2013-01-14 14:44:00,
2013-01-14 09:49:00,49.9,49.8,29.61,NNE,28,7.0,16.0,100,0.00,,,0.00,0288,Weather View 32 v70,2013-01-14 14:49:00,
2013-01-14 09:54:00,50.8,50.8,29.61,NNE,23,6.0,16.0,100,0.00,,,0.00,0264,Weather View 32 v70,2013-01-14 14:54:00,
2013-01-14 09:59:00,51.2,51.2,29.61,NE,39,9.0,16.0,100,0.00,,,0.00,0280,Weather View 32 v70,2013-01-14 14:59:00,
2013-01-14 10:04:00,51.0,51.0,29.61,NNE,28,7.0,16.0,100,0.00,,,0.00,0176,Weather View 32 v70,2013-01-14 15:04:00,
2013-01-14 10:09:00,51.1,51.1,29.61,NNE,28,7.0,16.0,100,0.00,,,0.00,0184,Weather View 32 v70,2013-01-14 15:09:00,
2013-01-14 10:14:00,51.4,51.4,29.61,NNE,28,7.0,16.0,100,0.00,,,0.00,0208,Weather View 32 v70,2013-01-14 15:14:00,
2013-01-14 10:19:00,51.3,51.3,29.62,NNE,28,7.0,13.0,100,0.00,,,0.00,0224,Weather View 32 v70,2013-01-14 15:19:00,
2013-01-14 10:24:00,51.3,51.3,29.62,NNE,28,6.0,12.0,100,0.00,,,0.00,0152,Weather View 32 v70,2013-01-14 15:24:00,
2013-01-14 10:29:00,51.6,51.5,29.62,NE,34,10.0,12.0,100,0.00,,,0.00,0152,Weather View 32 v70,2013-01-14 15:29:00,
2013-01-14 10:34:00,51.6,51.5,29.62,NNE,23,6.0,12.0,100,0.00,,,0.00,0144,Weather View 32 v70,2013-01-14 15:34:00,
2013-01-14 10:39:00,51.8,51.8,29.61,NNE,28,7.0,12.0,100,0.00,,,0.00,0120,Weather View 32 v70,2013-01-14 15:39:00,
2013-01-14 10:44:00,52.0,52.0,29.61,NNE,23,5.0,12.0,100,0.00,,,0.00,0136,Weather View 32 v70,2013-01-14 15:44:00,
2013-01-14 10:49:00,52.1,52.1,29.60,NNE,17,7.0,12.0,100,0.00,,,0.00,0160,Weather View 32 v70,2013-01-14 15:49:00,
2013-01-14 10:54:00,52.6,52.5,29.61,NNE,28,7.0,12.0,100,0.00,,,0.00,0200,Weather View 32 v70,2013-01-14 15:54:00,
2013-01-14 10:59:00,53.0,53.0,29.61,NE,34,8.0,13.0,100,0.00,,,0.00,0176,Weather View 32 v70,2013-01-14 15:59:00,
2013-01-14 11:04:00,53.1,51.7,29.62,NNE,17,5.0,13.0,95,0.00,,,0.00,0160,Weather View 32 v70,2013-01-14 16:04:00,
2013-01-14 11:09:00,53.1,50.9,29.61,NE,51,10.0,13.0,92,0.00,,,0.00,0160,Weather View 32 v70,2013-01-14 16:09:00,
2013-01-14 11:14:00,53.1,50.6,29.61,NNE,17,9.0,14.0,91,0.00,,,0.00,0208,Weather View 32 v70,2013-01-14 16:14:00,
2013-01-14 11:19:00,53.4,50.8,29.61,NNE,28,7.0,14.0,91,0.00,,,0.00,0216,Weather View 32 v70,2013-01-14 16:19:00,
2013-01-14 11:24:00,53.7,50.8,29.61,NNE,28,7.0,15.0,90,0.00,,,0.00,0184,Weather View 32 v70,2013-01-14 16:24:00,
2013-01-14 11:29:00,54.0,50.5,29.61,NE,51,10.0,15.0,88,0.00,,,0.00,0184,Weather View 32 v70,2013-01-14 16:29:00,
2013-01-14 11:34:00,54.6,50.8,29.63,North,6,3.0,15.0,87,0.00,,,0.00,0104,Weather View 32 v70,2013-01-14 16:34:00,
2013-01-14 11:39:00,55.0,49.9,29.62,NE,45,7.0,15.0,83,0.00,,,0.00,0368,Weather View 32 v70,2013-01-14 16:39:00,
2013-01-14 11:44:00,55.6,49.5,29.62,NE,51,8.0,15.0,80,0.00,,,0.00,0280,Weather View 32 v70,2013-01-14 16:44:00,
2013-01-14 11:49:00,56.7,48.9,29.62,North,6,4.0,15.0,75,0.00,,,0.00,0472,Weather View 32 v70,2013-01-14 16:49:00,
2013-01-14 11:54:00,56.1,47.1,29.62,East,96,12.0,18.0,72,0.00,,,0.00,0272,Weather View 32 v70,2013-01-14 16:54:00,
2013-01-14 11:59:00,55.6,45.6,29.63,East,79,14.0,18.0,69,0.00,,,0.00,0224,Weather View 32 v70,2013-01-14 16:59:00,
2013-01-14 12:04:00,55.4,45.3,29.62,ENE,73,9.0,18.0,69,0.00,,,0.00,0176,Weather View 32 v70,2013-01-14 17:04:00,
2013-01-14 12:09:00,55.5,45.1,29.62,ENE,62,8.0,18.0,68,0.00,,,0.00,0192,Weather View 32 v70,2013-01-14 17:09:00,
2013-01-14 12:14:00,55.2,43.2,29.62,North,11,7.0,18.0,64,0.00,,,0.00,0176,Weather View 32 v70,2013-01-14 17:14:00,
2013-01-14 12:19:00,54.6,42.2,29.61,SE,141,10.0,28.0,63,0.00,,,0.00,0152,Weather View 32 v70,2013-01-14 17:19:00,
2013-01-14 12:24:00,54.5,42.9,29.62,ESE,113,13.0,28.0,65,0.00,,,0.00,0208,Weather View 32 v70,2013-01-14 17:24:00,
2013-01-14 12:29:00,54.0,42.5,29.63,North,0,6.0,28.0,65,0.00,,,0.00,0144,Weather View 32 v70,2013-01-14 17:29:00,
2013-01-14 12:34:00,53.6,41.7,29.65,North,6,6.0,28.0,64,0.00,,,0.00,0120,Weather View 32 v70,2013-01-14 17:34:00,
2013-01-14 12:39:00,53.6,42.1,29.63,North,11,7.0,28.0,65,0.00,,,0.00,0176,Weather View 32 v70,2013-01-14 17:39:00,
2013-01-14 12:44:00,53.6,42.5,29.63,North,354,4.0,28.0,66,0.00,,,0.00,0136,Weather View 32 v70,2013-01-14 17:44:00,
2013-01-14 12:49:00,53.5,42.4,29.63,East,96,12.0,28.0,66,0.00,,,0.00,0136,Weather View 32 v70,2013-01-14 17:49:00,
2013-01-14 12:54:00,53.5,42.4,29.62,ESE,113,10.0,28.0,66,0.00,,,0.00,0200,Weather View 32 v70,2013-01-14 17:54:00,
2013-01-14 12:59:00,55.0,42.6,29.63,NE,34,7.0,28.0,63,0.00,,,0.00,0384,Weather View 32 v70,2013-01-14 17:59:00,
2013-01-14 13:04:00,54.4,42.4,29.63,ESE,107,13.0,28.0,64,0.00,,,0.00,0280,Weather View 32 v70,2013-01-14 18:04:00,
2013-01-14 13:09:00,56.2,43.7,29.63,NE,34,5.0,28.0,63,0.00,,,0.00,0576,Weather View 32 v70,2013-01-14 18:09:00,
2013-01-14 13:14:00,54.6,42.2,29.62,ENE,68,7.0,28.0,63,0.00,,,0.00,0240,Weather View 32 v70,2013-01-14 18:14:00,
2013-01-14 13:19:00,54.7,41.9,29.62,NE,39,8.0,24.0,62,0.00,,,0.00,0272,Weather View 32 v70,2013-01-14 18:19:00,
2013-01-14 13:24:00,54.3,41.5,29.62,NE,39,5.0,24.0,62,0.00,,,0.00,0128,Weather View 32 v70,2013-01-14 18:24:00,
2013-01-14 13:29:00,54.5,41.3,29.63,NNE,17,4.0,24.0,61,0.00,,,0.00,0200,Weather View 32 v70,2013-01-14 18:29:00,
2013-01-14 13:34:00,54.3,41.1,29.63,East,84,9.0,20.0,61,0.00,,,0.00,0088,Weather View 32 v70,2013-01-14 18:34:00,
2013-01-14 13:39:00,53.6,40.4,29.63,East,84,12.0,20.0,61,0.00,,,0.00,0040,Weather View 32 v70,2013-01-14 18:39:00,
2013-01-14 13:44:00,53.6,40.8,29.64,NE,34,3.0,20.0,62,0.00,,,0.00,0064,Weather View 32 v70,2013-01-14 18:44:00,
2013-01-14 13:49:00,53.7,40.5,29.62,East,79,10.0,20.0,61,0.00,,,0.00,0096,Weather View 32 v70,2013-01-14 18:49:00,
2013-01-14 13:54:00,53.8,40.6,29.63,NE,51,8.0,20.0,61,0.00,,,0.00,0072,Weather View 32 v70,2013-01-14 18:54:00,
2013-01-14 13:59:00,53.8,38.9,29.63,North,354,6.0,20.0,57,0.00,,,0.00,0096,Weather View 32 v70,2013-01-14 18:59:00,
2013-01-14 14:04:00,53.8,38.0,29.63,North,0,14.0,21.0,55,0.00,,,0.00,0072,Weather View 32 v70,2013-01-14 19:04:00,
2013-01-14 14:09:00,53.6,36.8,29.64,East,90,10.0,21.0,53,0.00,,,0.00,0048,Weather View 32 v70,2013-01-14 19:09:00,
2013-01-14 14:14:00,53.7,37.4,29.63,SE,146,11.0,21.0,54,0.00,,,0.00,0096,Weather View 32 v70,2013-01-14 19:14:00,
2013-01-14 14:19:00,53.6,37.3,29.63,East,79,8.0,21.0,54,0.00,,,0.00,0088,Weather View 32 v70,2013-01-14 19:19:00,
2013-01-14 14:24:00,53.6,37.3,29.64,NE,39,9.0,21.0,54,0.00,,,0.00,0080,Weather View 32 v70,2013-01-14 19:24:00,
2013-01-14 14:29:00,53.7,37.9,29.65,NE,39,9.0,21.0,55,0.00,,,0.00,0056,Weather View 32 v70,2013-01-14 19:29:00,
2013-01-14 14:34:00,53.6,37.8,29.66,NE,39,5.0,21.0,55,0.00,,,0.00,0056,Weather View 32 v70,2013-01-14 19:34:00,
2013-01-14 14:39:00,53.7,37.4,29.67,ESE,113,11.0,21.0,54,0.00,,,0.00,0072,Weather View 32 v70,2013-01-14 19:39:00,
2013-01-14 14:44:00,53.7,37.4,29.67,East,79,8.0,21.0,54,0.00,,,0.00,0088,Weather View 32 v70,2013-01-14 19:44:00,
2013-01-14 14:49:00,53.8,37.5,29.67,NNE,28,5.0,21.0,54,0.00,,,0.00,0096,Weather View 32 v70,2013-01-14 19:49:00,
2013-01-14 14:54:00,53.9,37.6,29.67,NNE,28,8.0,21.0,54,0.00,,,0.00,0080,Weather View 32 v70,2013-01-14 19:54:00,
2013-01-14 14:59:00,53.6,36.8,29.67,NE,51,8.0,21.0,53,0.00,,,0.00,0072,Weather View 32 v70,2013-01-14 19:59:00,
2013-01-14 15:04:00,53.7,36.9,29.66,NE,39,4.0,21.0,53,0.00,,,0.00,0088,Weather View 32 v70,2013-01-14 20:04:00,
2013-01-14 15:09:00,53.7,36.9,29.67,NNE,17,4.0,21.0,53,0.00,,,0.00,0072,Weather View 32 v70,2013-01-14 20:09:00,
2013-01-14 15:14:00,53.5,36.7,29.67,NNE,17,5.0,18.0,53,0.00,,,0.00,0056,Weather View 32 v70,2013-01-14 20:14:00,
2013-01-14 15:19:00,53.5,36.2,29.68,NNE,17,4.0,18.0,52,0.00,,,0.00,0064,Weather View 32 v70,2013-01-14 20:19:00,
2013-01-14 15:24:00,53.6,36.3,29.68,North,11,3.0,18.0,52,0.00,,,0.00,0064,Weather View 32 v70,2013-01-14 20:24:00,
2013-01-14 15:29:00,53.2,36.0,29.69,NE,39,6.0,18.0,52,0.00,,,0.00,0064,Weather View 32 v70,2013-01-14 20:29:00,
2013-01-14 15:34:00,53.0,36.3,29.68,East,79,9.0,18.0,53,0.00,,,0.00,0056,Weather View 32 v70,2013-01-14 20:34:00,
2013-01-14 15:39:00,52.8,35.6,29.68,East,96,7.0,13.0,52,0.00,,,0.00,0056,Weather View 32 v70,2013-01-14 20:39:00,
2013-01-14 15:44:00,52.5,35.8,29.69,ESE,107,8.0,17.0,53,0.00,,,0.00,0040,Weather View 32 v70,2013-01-14 20:44:00,
2013-01-14 15:49:00,52.3,36.1,29.68,NE,45,5.0,17.0,54,0.00,,,0.00,0040,Weather View 32 v70,2013-01-14 20:49:00,
2013-01-14 15:54:00,52.2,36.0,29.68,ESE,107,8.0,17.0,54,0.00,,,0.00,0040,Weather View 32 v70,2013-01-14 20:54:00,
2013-01-14 15:59:00,52.0,35.8,29.69,NE,51,4.0,17.0,54,0.00,,,0.00,0024,Weather View 32 v70,2013-01-14 20:59:00,
2013-01-14 16:04:00,52.0,36.3,29.68,SE,124,10.0,17.0,55,0.00,,,0.00,0024,Weather View 32 v70,2013-01-14 21:04:00,
2013-01-14 16:09:00,51.9,36.2,29.68,South,174,6.0,17.0,55,0.00,,,0.00,0024,Weather View 32 v70,2013-01-14 21:09:00,
2013-01-14 16:14:00,51.8,35.2,29.69,SE,135,8.0,17.0,53,0.00,,,0.00,0008,Weather View 32 v70,2013-01-14 21:14:00,
2013-01-14 16:19:00,51.6,34.0,29.69,NE,45,4.0,17.0,51,0.00,,,0.00,0008,Weather View 32 v70,2013-01-14 21:19:00,
2013-01-14 16:24:00,51.3,33.3,29.69,NE,34,6.0,17.0,50,0.00,,,0.00,0008,Weather View 32 v70,2013-01-14 21:24:00,
2013-01-14 16:29:00,51.2,33.2,29.69,East,84,4.0,17.0,50,0.00,,,0.00,0008,Weather View 32 v70,2013-01-14 21:29:00,
2013-01-14 16:34:00,51.0,33.0,29.70,ESE,107,5.0,17.0,50,0.00,,,0.00,0000,Weather View 32 v70,2013-01-14 21:34:00,
2013-01-14 16:39:00,50.9,32.9,29.70,ESE,107,6.0,17.0,50,0.00,,,0.00,0000,Weather View 32 v70,2013-01-14 21:39:00,
2013-01-14 16:44:00,50.8,32.8,29.70,ESE,107,10.0,16.0,50,0.00,,,0.00,0000,Weather View 32 v70,2013-01-14 21:44:00,
2013-01-14 16:49:00,50.7,33.2,29.71,ESE,107,6.0,16.0,51,0.00,,,0.00,0000,Weather View 32 v70,2013-01-14 21:49:00,
2013-01-14 16:54:00,50.4,32.9,29.70,ESE,107,11.0,16.0,51,0.00,,,0.00,0000,Weather View 32 v70,2013-01-14 21:54:00,
2013-01-14 16:59:00,50.3,32.8,29.70,ESE,107,4.0,16.0,51,0.00,,,0.00,0000,Weather View 32 v70,2013-01-14 21:59:00,
2013-01-14 17:04:00,50.2,33.2,29.70,ESE,107,5.0,16.0,52,0.00,,,0.00,0000,Weather View 32 v70,2013-01-14 22:04:00,
2013-01-14 17:09:00,49.9,36.9,29.70,ESE,107,7.0,16.0,61,0.00,,,0.00,0000,Weather View 32 v70,2013-01-14 22:09:00,
2013-01-14 17:14:00,49.1,38.6,29.69,ESE,107,7.0,16.0,67,0.00,,,0.00,0000,Weather View 32 v70,2013-01-14 22:14:00,
2013-01-14 17:19:00,48.3,38.9,29.70,SE,141,11.0,16.0,70,0.00,,,0.00,0000,Weather View 32 v70,2013-01-14 22:19:00,
2013-01-14 17:24:00,48.1,38.3,29.70,SW,214,12.0,16.0,69,0.00,,,0.00,0000,Weather View 32 v70,2013-01-14 22:24:00,
2013-01-14 17:29:00,48.0,37.9,29.71,SW,214,8.0,16.0,68,0.00,,,0.00,0000,Weather View 32 v70,2013-01-14 22:29:00,
2013-01-14 17:34:00,47.8,37.4,29.71,South,174,8.0,16.0,67,0.00,,,0.00,0000,Weather View 32 v70,2013-01-14 22:34:00,
2013-01-14 17:39:00,47.8,37.0,29.72,South,169,8.0,21.0,66,0.00,,,0.00,0000,Weather View 32 v70,2013-01-14 22:39:00,
2013-01-14 17:44:00,47.8,37.0,29.72,South,169,9.0,21.0,66,0.00,,,0.00,0000,Weather View 32 v70,2013-01-14 22:44:00,
2013-01-14 17:49:00,47.6,36.8,29.71,South,169,7.0,21.0,66,0.00,,,0.00,0000,Weather View 32 v70,2013-01-14 22:49:00,
2013-01-14 17:54:00,47.4,36.6,29.72,South,169,5.0,21.0,66,0.00,,,0.00,0000,Weather View 32 v70,2013-01-14 22:54:00,
2013-01-14 17:59:00,47.3,36.5,29.72,South,174,13.0,21.0,66,0.00,,,0.00,0000,Weather View 32 v70,2013-01-14 22:59:00,
2013-01-14 18:04:00,47.2,36.7,29.73,South,174,8.0,21.0,67,0.00,,,0.00,0000,Weather View 32 v70,2013-01-14 23:04:00,
2013-01-14 18:09:00,46.8,36.8,29.73,South,169,10.0,21.0,68,0.00,,,0.00,0000,Weather View 32 v70,2013-01-14 23:09:00,
2013-01-14 18:14:00,46.6,35.8,29.73,South,169,6.0,21.0,66,0.00,,,0.00,0000,Weather View 32 v70,2013-01-14 23:14:00,
2013-01-14 18:19:00,46.6,35.4,29.73,South,169,7.0,21.0,65,0.00,,,0.00,0000,Weather View 32 v70,2013-01-14 23:19:00,
2013-01-14 18:24:00,46.5,35.3,29.73,South,174,9.0,21.0,65,0.00,,,0.00,0000,Weather View 32 v70,2013-01-14 23:24:00,
2013-01-14 18:29:00,46.5,35.7,29.73,South,169,6.0,21.0,66,0.00,,,0.00,0000,Weather View 32 v70,2013-01-14 23:29:00,
2013-01-14 18:34:00,45.9,35.6,29.73,South,169,6.0,21.0,67,0.00,,,0.00,0000,Weather View 32 v70,2013-01-14 23:34:00,
2013-01-14 18:39:00,45.7,35.4,29.73,South,169,5.0,15.0,67,0.00,,,0.00,0000,Weather View 32 v70,2013-01-14 23:39:00,
2013-01-14 18:44:00,45.7,35.4,29.74,South,169,6.0,15.0,67,0.00,,,0.00,0000,Weather View 32 v70,2013-01-14 23:44:00,
2013-01-14 18:49:00,45.6,34.1,29.73,South,174,5.0,15.0,64,0.00,,,0.00,0000,Weather View 32 v70,2013-01-14 23:49:00,
2013-01-14 18:54:00,45.5,33.6,29.74,South,174,7.0,15.0,63,0.00,,,0.00,0000,Weather View 32 v70,2013-01-14 23:54:00,
2013-01-14 18:59:00,45.5,33.2,29.75,South,169,7.0,15.0,62,0.00,,,0.00,0000,Weather View 32 v70,2013-01-14 23:59:00,
2013-01-14 19:04:00,45.6,33.3,29.75,South,169,5.0,15.0,62,0.00,,,0.00,0000,Weather View 32 v70,2013-01-15 00:04:00,
2013-01-14 19:09:00,45.4,33.5,29.76,SSE,163,6.0,15.0,63,0.00,,,0.00,0000,Weather View 32 v70,2013-01-15 00:09:00,
2013-01-14 19:14:00,45.3,33.4,29.76,South,169,3.0,15.0,63,0.00,,,0.00,0000,Weather View 32 v70,2013-01-15 00:14:00,
2013-01-14 19:19:00,45.3,33.4,29.78,South,169,3.0,15.0,63,0.00,,,0.00,0000,Weather View 32 v70,2013-01-15 00:19:00,
2013-01-14 19:24:00,45.1,33.3,29.79,South,169,6.0,15.0,63,0.00,,,0.00,0000,Weather View 32 v70,2013-01-15 00:24:00,
2013-01-14 19:29:00,45.0,32.8,29.79,South,169,5.0,15.0,62,0.00,,,0.00,0000,Weather View 32 v70,2013-01-15 00:29:00,
2013-01-14 19:34:00,45.0,32.4,29.78,SSE,163,4.0,15.0,61,0.00,,,0.00,0000,Weather View 32 v70,2013-01-15 00:34:00,
2013-01-14 19:39:00,44.9,32.2,29.79,SSE,163,5.0,17.0,61,0.00,,,0.00,0000,Weather View 32 v70,2013-01-15 00:39:00,
2013-01-14 19:44:00,44.8,31.7,29.80,South,169,6.0,17.0,60,0.00,,,0.00,0000,Weather View 32 v70,2013-01-15 00:44:00,
2013-01-14 19:49:00,44.5,31.8,29.80,South,169,8.0,17.0,61,0.00,,,0.00,0000,Weather View 32 v70,2013-01-15 00:49:00,
2013-01-14 19:54:00,44.2,32.0,29.81,South,169,5.0,17.0,62,0.00,,,0.00,0000,Weather View 32 v70,2013-01-15 00:54:00,
2013-01-14 19:59:00,43.7,31.9,29.82,South,169,7.0,17.0,63,0.00,,,0.00,0000,Weather View 32 v70,2013-01-15 00:59:00,
2013-01-14 20:04:00,43.5,32.1,29.81,South,169,9.0,17.0,64,0.00,,,0.00,0000,Weather View 32 v70,2013-01-15 01:04:00,
2013-01-14 20:09:00,43.3,32.0,29.81,South,174,6.0,17.0,64,0.00,,,0.00,0000,Weather View 32 v70,2013-01-15 01:09:00,
2013-01-14 20:14:00,42.8,31.8,29.81,South,169,7.0,17.0,65,0.00,,,0.00,0000,Weather View 32 v70,2013-01-15 01:14:00,
2013-01-14 20:19:00,42.8,31.4,29.81,South,169,9.0,17.0,64,0.00,,,0.00,0000,Weather View 32 v70,2013-01-15 01:19:00,
2013-01-14 20:24:00,42.6,31.6,29.81,South,169,8.0,17.0,65,0.00,,,0.00,0000,Weather View 32 v70,2013-01-15 01:24:00,
2013-01-14 20:29:00,42.1,31.2,29.80,South,169,8.0,17.0,65,0.00,,,0.00,0000,Weather View 32 v70,2013-01-15 01:29:00,
2013-01-14 20:34:00,42.0,30.7,29.81,South,174,6.0,17.0,64,0.00,,,0.00,0000,Weather View 32 v70,2013-01-15 01:34:00,
2013-01-14 20:39:00,41.7,30.7,29.81,South,174,6.0,16.0,65,0.00,,,0.00,0000,Weather View 32 v70,2013-01-15 01:39:00,
2013-01-14 20:44:00,41.3,30.4,29.80,South,180,7.0,16.0,65,0.00,,,0.00,0000,Weather View 32 v70,2013-01-15 01:44:00,
2013-01-14 20:49:00,41.4,30.5,29.80,South,180,10.0,16.0,65,0.00,,,0.00,0000,Weather View 32 v70,2013-01-15 01:49:00,
2013-01-14 20:54:00,41.4,29.8,29.80,South,186,6.0,16.0,63,0.00,,,0.00,0000,Weather View 32 v70,2013-01-15 01:54:00,
2013-01-14 20:59:00,41.3,30.0,29.81,South,186,10.0,16.0,64,0.00,,,0.00,0000,Weather View 32 v70,2013-01-15 01:59:00,
2013-01-14 21:04:00,41.3,28.8,29.82,South,186,5.0,16.0,61,0.00,,,0.00,0000,Weather View 32 v70,2013-01-15 02:04:00,
2013-01-14 21:09:00,41.3,28.8,29.82,ESE,107,9.0,16.0,61,0.00,,,0.00,0000,Weather View 32 v70,2013-01-15 02:09:00,
2013-01-14 21:14:00,41.1,29.4,29.80,SSW,208,7.0,16.0,63,0.00,,,0.00,0000,Weather View 32 v70,2013-01-15 02:14:00,
2013-01-14 21:19:00,40.6,29.8,29.79,SSW,208,10.0,16.0,65,0.00,,,0.00,0000,Weather View 32 v70,2013-01-15 02:19:00,
2013-01-14 21:24:00,40.3,29.8,29.81,SSW,208,9.0,16.0,66,0.00,,,0.00,0000,Weather View 32 v70,2013-01-15 02:24:00,
2013-01-14 21:29:00,40.1,31.1,29.82,SSW,208,9.0,16.0,70,0.00,,,0.00,0000,Weather View 32 v70,2013-01-15 02:29:00,
2013-01-14 21:34:00,39.5,31.6,29.83,SSW,203,8.0,15.0,73,0.00,,,0.00,0000,Weather View 32 v70,2013-01-15 02:34:00,
2013-01-14 21:39:00,38.8,32.6,29.83,SSW,208,5.0,15.0,78,0.00,,,0.00,0000,Weather View 32 v70,2013-01-15 02:39:00,
2013-01-14 21:44:00,38.3,33.3,29.84,SSW,208,5.0,15.0,82,0.00,,,0.00,0000,Weather View 32 v70,2013-01-15 02:44:00,
2013-01-14 21:49:00,38.1,33.6,29.83,SSW,203,4.0,15.0,84,0.00,,,0.00,0000,Weather View 32 v70,2013-01-15 02:49:00,
2013-01-14 21:54:00,37.7,33.0,29.83,SSW,203,8.0,15.0,83,0.00,,,0.00,0000,Weather View 32 v70,2013-01-15 02:54:00,
2013-01-14 21:59:00,37.6,33.5,29.82,SSW,203,3.0,16.0,85,0.00,,,0.00,0000,Weather View 32 v70,2013-01-15 02:59:00,
2013-01-14 22:04:00,37.4,33.3,29.84,SSW,208,7.0,16.0,85,0.00,,,0.00,0000,Weather View 32 v70,2013-01-15 03:04:00,
2013-01-14 22:09:00,37.4,34.1,29.84,SSW,203,3.0,16.0,88,0.00,,,0.00,0000,Weather View 32 v70,2013-01-15 03:09:00,
2013-01-14 22:14:00,37.2,33.3,29.85,SSW,203,8.0,16.0,86,0.00,,,0.00,0000,Weather View 32 v70,2013-01-15 03:14:00,
2013-01-14 22:19:00,37.0,34.1,29.84,SSW,203,6.0,16.0,89,0.00,,,0.00,0000,Weather View 32 v70,2013-01-15 03:19:00,
2013-01-14 22:24:00,36.8,33.9,29.83,SSW,203,6.0,16.0,89,0.00,,,0.00,0000,Weather View 32 v70,2013-01-15 03:24:00,
2013-01-14 22:29:00,36.8,33.3,29.83,SSW,203,8.0,16.0,87,0.00,,,0.00,0000,Weather View 32 v70,2013-01-15 03:29:00,
2013-01-14 22:34:00,36.6,33.1,29.84,SSW,208,4.0,16.0,87,0.00,,,0.00,0000,Weather View 32 v70,2013-01-15 03:34:00,
2013-01-14 22:39:00,36.5,33.8,29.83,SSW,208,3.0,16.0,90,0.00,,,0.00,0000,Weather View 32 v70,2013-01-15 03:39:00,
2013-01-14 22:44:00,36.4,33.4,29.83,SSW,208,5.0,16.0,89,0.00,,,0.00,0000,Weather View 32 v70,2013-01-15 03:44:00,
2013-01-14 22:49:00,36.5,33.5,29.84,SSW,208,8.0,16.0,89,0.00,,,0.00,0000,Weather View 32 v70,2013-01-15 03:49:00,
2013-01-14 22:54:00,36.1,32.9,29.84,SSW,208,6.0,16.0,88,0.00,,,0.00,0000,Weather View 32 v70,2013-01-15 03:54:00,
2013-01-14 22:59:00,36.1,32.9,29.84,SSW,203,4.0,14.0,88,0.00,,,0.00,0000,Weather View 32 v70,2013-01-15 03:59:00,
2013-01-14 23:04:00,36.1,32.9,29.83,SSW,203,4.0,14.0,88,0.00,,,0.00,0000,Weather View 32 v70,2013-01-15 04:04:00,
2013-01-14 23:09:00,36.0,32.8,29.84,SSW,208,4.0,14.0,88,0.00,,,0.00,0000,Weather View 32 v70,2013-01-15 04:09:00,
2013-01-14 23:14:00,36.1,32.6,29.84,SSW,208,3.0,14.0,87,0.00,,,0.00,0000,Weather View 32 v70,2013-01-15 04:14:00,
2013-01-14 23:19:00,36.3,33.6,29.85,SSW,203,6.0,14.0,90,0.00,,,0.00,0000,Weather View 32 v70,2013-01-15 04:19:00,
2013-01-14 23:24:00,36.1,33.2,29.85,SSW,203,5.0,14.0,89,0.00,,,0.00,0000,Weather View 32 v70,2013-01-15 04:24:00,
2013-01-14 23:29:00,36.1,33.5,29.85,SSW,208,6.0,13.0,90,0.00,,,0.00,0000,Weather View 32 v70,2013-01-15 04:29:00,
2013-01-14 23:34:00,36.1,34.0,29.85,SSW,208,2.0,12.0,92,0.00,,,0.00,0000,Weather View 32 v70,2013-01-15 04:34:00,
2013-01-14 23:39:00,36.3,33.3,29.85,SSW,203,4.0,11.0,89,0.00,,,0.00,0000,Weather View 32 v70,2013-01-15 04:39:00,
2013-01-14 23:44:00,36.1,32.1,29.85,SSW,203,5.0,13.0,85,0.00,,,0.00,0000,Weather View 32 v70,2013-01-15 04:44:00,
2013-01-14 23:49:00,36.4,33.1,29.85,SSW,208,4.0,13.0,88,0.00,,,0.00,0000,Weather View 32 v70,2013-01-15 04:49:00,
2013-01-14 23:54:00,36.3,32.8,29.85,SSW,208,3.0,13.0,87,0.00,,,0.00,0000,Weather View 32 v70,2013-01-15 04:54:00,
2013-01-14 23:59:00,36.0,31.9,29.84,SSW,203,6.0,13.0,85,0.00,,,0.00,0000,Weather View 32 v70,2013-01-15 04:59:00,